Preview of NWS' New Version of Forecast
This preview is not operational and should not be used for support decisions.
Latest weather observations around

Louisville, Bowman Field Airport (KLOU)

Using International System of Units (Switch to English Units)
Date/ Time (EDT) Wind (kph) Vis. (km) Weather Sky Cond. Temp (°C) Rel. Humidity Wind Chill (°C) Heat Index (°C) Pressure Precip. (cm)
Air Dwpt 6 hour Altimeter (hPa) Sea level (hPa) 1 hr 3 hr 6 hr
Max Min
Aug 21 06:53 S 9 16.09 Clear CLR 21 19     87%     1015.9 1015.5      
Aug 21 05:53 Calm 16.09 Clear CLR 21 19     87%     1016.3 1015.9      
Aug 21 04:53 Calm 16.09 Clear CLR 21 19     90%     1016.6 1016.1      
Aug 21 03:53 Calm 16.09 Partly Cloudy SCT110 22 19     84%   22 1016.9 1016.2      
Aug 21 02:53 SW 5 16.09 Mostly Cloudy BKN110 22 19     84%   22 1016.9 1016.1      
Aug 21 01:53 Calm 16.09 Mostly Cloudy BKN110 23 19     79%   23 1016.9 1016.3      
Aug 21 00:53 WSW 5 16.09 Cloudy OVC110 23 19     79%   23 1016.6 1015.9      
Aug 20 23:53 WSW 11 16.09 Clear CLR 23 19     79%   23 1016.6 1015.9      
Aug 20 22:53 W 9 16.09 Clear CLR 23 18     76%   23 1016.3 1015.6      
Aug 20 21:53 S 11 16.09 Clear CLR 23 18     74%   24 1015.6 1014.8      
Aug 20 20:53 S 8 16.09 Clear CLR 24 19     74%   24 1015.6 1014.9      
Aug 20 19:53 SSE 11 16.09 Clear CLR 24 19     76%   24 1016.6 1016.1     0
Aug 20 18:53 ESE 15 16.09 Mostly Clear FEW080 FEW100 23 19     81%   23 1016.3 1015.8 0    
Aug 20 17:53 NNW 22 16.09 Light Rain FEW023 SCT110 23 19     79%   23 1018.3 1017.8 0    
Aug 20 17:34 NNW 17 16.09 Light Rain SCT025 BKN060 23 19     76%   24 1019.3   0    
Aug 20 17:01   16.09 Mostly Cloudy SCT042 BKN050 BKN060 26 17     58%   26 1018.6        
Aug 20 16:53 NNW 33 16.09 Partly Cloudy and Windy FEW038 SCT046 28 18     56%   29 1018.3 1017.7      
Aug 20 15:53 W 22 16.09 Mostly Clear FEW055 35 21     44%   39 1015.9 1015.1      
Aug 20 14:53 SW 18 16.09 Clear CLR 36 21     42%   39 1016.3 1015.5      
Aug 20 13:53 SW 18 16.09 Clear CLR 36 21     42%   39 1016.6 1015.9      
Aug 20 12:53 SW 17 16.09 Mostly Clear FEW065 34 22     48%   38 1017.3 1016.4      
Aug 20 11:53 W 11 16.09 Mostly Clear FEW070 34 22     51%   38 1018.6 1017.7      
Aug 20 10:53 W 8 16.09 Mostly Cloudy BKN085 32 22     57%   36 1018.6 1017.8      
Aug 20 09:53 S 13 16.09 Mostly Clear FEW090 30 22     63%   33 1018.3 1017.7      
Aug 20 08:53 SW 5 16.09 Clear CLR 28 22     72%   30 1018 1017.2      
Aug 20 07:53 SSE 8 16.09 Clear CLR 26 22     82%   26 1017.3 1016.5      
Aug 20 06:53 Calm 16.09 Clear CLR 24 22     85%   25 1017.6 1017      
Aug 20 05:53 Calm 16.09 Clear CLR 24 22     85%   25 1017.6 1016.8      
Aug 20 04:53 Calm 16.09 Clear CLR 24 22     88%   25 1017.6 1016.7      
Aug 20 03:53 Calm 16.09 Clear CLR 26 22     82%   26 1017.3 1016.3      
Aug 20 02:53 Calm 16.09 Clear CLR 26 22     82%   26 1017.3 1016.5      
Aug 20 01:53 Calm 16.09 Clear   26 22     79%   28 1017.3 1016.6      
Aug 20 00:53 Calm 16.09 Clear CLR 27 22     74%   29 1017.3 1016.5      
Aug 19 23:53 Calm 16.09 Clear CLR 27 21     71%   28 1017.3 1016.5      
Aug 19 22:53 Calm 16.09 Clear CLR 28 21     67%   30 1016.9 1016.3      
Aug 19 21:53 Calm 16.09 Clear CLR 29 21     61%   31 1016.6 1015.9      
Aug 19 20:53 Calm 16.09 Clear CLR 31 20     52%   33 1015.6 1014.9      
Aug 19 19:53 WNW 11 16.09 Clear CLR 33 20     47%   35 1015.2 1014.5      
Aug 19 18:53 NW 13 16.09 Clear CLR 34 19     41%   37 1014.9 1014.2      
Aug 19 17:53 Calm 16.09 Clear CLR 36 19     39%   38 1014.9 1014.3      
Aug 19 16:53 W 18 16.09 Clear CLR 36 20     40%   38 1015.2 1014.6      
Aug 19 15:53 W 11 16.09 Clear CLR 36 21     42%   39 1015.9 1015.2      
Aug 19 14:53 SSW 18 16.09 Mostly Clear FEW050 35 21     43%   38 1016.6 1016      
Aug 19 13:53 9 16.09 Partly Cloudy SCT049 34 21     46%   38 1017.3 1016.4      
Aug 19 12:53 WSW 13 16.09 Clear CLR 33 21     49%   37 1017.6 1016.8      
Aug 19 11:53 Calm 16.09 Clear CLR 32 21     53%   35 1017.6 1016.9      
Aug 19 10:53 SSW 8 16.09 Clear CLR 30 21     59%   33 1017.6 1016.9      
Aug 19 09:53 Calm 16.09 Clear CLR 28 21     63%   30 1017.3 1016.7      
Aug 19 08:53 SSE 8 16.09 Clear CLR 26 21     72%   27 1017.3 1016.6      
Aug 19 07:53 Calm 16.09 Clear CLR 23 21     90%   23 1016.9 1016.1     0
Aug 19 06:53 Calm 16.09 Clear CLR 22 20     90%   22 1016.3 1015.6      
Aug 19 05:53 Calm 16.09 Clear CLR 22 21     91%   23 1015.9 1015.1      
Aug 19 04:53 Calm 16.09 Clear CLR 22 21     91%   23 1015.6 1014.8   0  
Aug 19 03:53 N 5 16.09 Clear CLR 23 21     85%   24 1015.2 1014.6 0    
Aug 19 03:09 NE 9 16.09 Light Rain FEW060 SCT110 24 20     79%   24 1015.6   0    
Aug 19 02:53 NNE 11 16.09 Thunderstorms and Rain FEW060 SCT110 24 20     79%   24 1015.9 1015.2 0    
Aug 19 01:53 NNE 8 16.09 Partly Cloudy SCT100 26 19     67%   27 1015.6 1014.6     0
Aug 19 00:53 N 8 16.09 Clear CLR 27 19     61%   28 1015.6 1014.8      
Aug 18 23:53 NNW 5 16.09 Clear CLR 28 18     55%   29 1014.6 1013.9      
Aug 18 22:53 Calm 16.09 Clear CLR 28 18     55%   29 1014.2 1013.4 0 0  
Aug 18 21:53 W 8 16.09 Clear CLR 29 18     51%   30 1013.9 1013.1      
Aug 18 20:53 SW 21 16.09 Clear CLR 31 19     50%   32 1013.2 1012.3      
Aug 18 19:53 WSW 17 16.09 Clear CLR 32 18     44%   32 1013.2 1012.4      
Aug 18 18:53 SW 15 16.09 Clear CLR 33 18     42%   34 1012.9 1012.2      
Aug 18 17:53 SW 15 16.09 Clear CLR 34 18     40%   35 1012.9 1012.2      
Aug 18 16:53 S 21 16.09 Clear CLR 35 18     36%   36 1012.9 1012.2      
Aug 18 15:53 9 16.09 Clear CLR 34 18     39%   36 1013.9 1013      
Aug 18 14:53 W 15 16.09 Mostly Cloudy BKN070 34 19     41%   36 1014.9 1014.2      
Aug 18 13:53 WSW 13 16.09 Mostly Clear FEW050 34 19     41%   36 1015.2 1014.3      
Aug 18 12:53 SW 21 16.09 Mostly Clear FEW050 33 19     44%   35 1015.6 1014.8      
Aug 18 11:53 SW 15 16.09 Clear CLR 32 21     50%   35 1015.6 1015      
Aug 18 10:53 SSW 11 16.09 Clear CLR 30 21     59%   33 1015.9 1015.1      
Aug 18 09:53 SSW 8 16.09 Clear CLR 28 21     65%   31 1015.2 1014.6      
Aug 18 08:53 SE 8 16.09 Clear CLR 27 21     71%   28 1015.2 1014.4      
Aug 18 07:53 SSE 8 16.09 Clear CLR 25 21     77%   26 1014.9 1014.2      
May 15 07:53 Calm 16.09 Mostly Clear FEW065 24 20     79%   24 1014.6 1013.8      
May 15 04:53 SW 5 16.09 Clear CLR 24 19     76%   24 1012.9 1012.2      
May 14 19:53 SSW 13 16.09 Mostly Clear FEW070 30 18     50%   31 1011.9 1011.3      
May 14 18:53 SSW 17 16.09 Mostly Clear FEW065 31 18     45%   32 1012.2 1011.7      
May 14 12:53 WNW 18 16.09 Mostly Clear FEW055 31 19     50%   32 1016.6 1015.8      
May 14 11:53 NW 17 16.09 Partly Cloudy SCT065 30 19     51%   31 1016.9 1016.3      
May 14 00:53 S 9 16.09 Clear CLR 23 19     76%   24 1015.6 1014.9      
May 12 16:53 WSW 13 16.09 Clear   31 18     48%   32 1017.3 1016.6      
May 12 11:53 SW 15 16.09 Clear CLR 28 18     53%   29 1019 1018.5      
May 12 07:53 SSW 8 16.09 Clear CLR 23 17     68%   23 1018.3 1017.6      
May 12 04:53 S 11 16.09 Clear CLR 22 16     70%   22 1016.6 1016.1      
May 12 03:53 S 11 16.09 Clear CLR 22 16     68%   22 1016.6 1016      
May 12 01:53 SSW 11 16.09 Clear CLR 23 17     66%   23 1016.3 1015.7      
May 11 23:53 S 5 16.09 Clear CLR 24 17     64%   24 1015.9 1015.4      
May 11 16:53 SW 21 16.09 Clear CLR 31 16     42%   31 1014.6 1013.8      
Jun 12 07:53 S 8 16.09 Mostly Cloudy BKN070 24 21     79%   25 1020.3 1019.5      
Jun 12 05:53 Calm 16.09 Partly Cloudy SCT050 SCT070 22 19     82%   23 1019.7 1018.9      
Jun 11 17:53 S 15 16.09 Mostly Clear FEW070 30 17     46%   30 1018.6 1018.1      
Jun 11 06:53 Calm 16.09 Clear CLR 19 16     81%     1020 1019.4      
Jun 09 03:53 Calm 16.09 Clear CLR 14 12     89%     1012.9 1012.6      
Jun 09 00:53 Calm 16.09 Clear CLR 16 12     80%     1013.2 1013      
Jun 08 15:53 5 16.09 Partly Cloudy SCT047 23 12     48%   23 1014.2 1013.9      
Jun 08 14:53 Calm 16.09 Cloudy OVC060 22 11     51%   21 1014.9 1014.7      
Jun 06 09:53 ENE 13 16.09 Clear CLR 20 14     68%     1013.6 1013.2      
Jun 05 20:07 SSW 11 16.09 Clear CLR 20 18     90%     1008.1        
Notice The following observation data may not be complete
Jun 05 19:19 8 8.05 Thunderstorms and Rain SCT026 BKN039 OVC100   17      %     1006.4   1